Regional Weather Roundup
Issued by NWS

Home | Current Version | Previous Version | Graphics & Text | Print | Product List | Glossary On
Versions: 1 2 3 4 5 6 7 8 9 10 11 12 13 14 15 16 17 18 19 20 21 22 23 24 25 26 27 28 29 30 31 32 33 34 35 36 37 38 39 40 41 42 43 44 45 46 47 48 49 50
000
ASUS45 KBOU 240510
RWRCO

WEATHER ROUNDUP FOR COLORADO
NATIONAL WEATHER SERVICE DENVER/BOULDER CO
1100 PM MDT MON APR 23 2018

NOTE: "FAIR" INDICATES FEW OR NO CLOUDS BELOW 12000 FEET WITH NO
SIGNIFICANT WEATHER AND/OR OBSTRUCTIONS TO VISIBILITY.

COZ001>005-013-030-031-240600-
...NORTHWEST COLORADO...

CITY           SKY/WX    TMP DP  RH WIND       PRES   REMARKS
CRAIG          FAIR      45  33  63 VRB3      30.21R
HAYDEN         FAIR      45  33  63 W13       30.21R
MEEKER         FAIR      50  29  44 NE9       30.20R
RANGELY        FAIR      52  30  44 NE29G38   30.18R
RABBIT EARS PA FAIR      32  30  93 W7        30.31R WCI  26
STEAMBOAT SPGS MOCLDY    45  35  67 NW5       30.19R
WALDEN         CLOUDY    34  28  80 N21       30.25S WCI  22
$$

COZ006>008-011-240600-
...WEST CENTRAL VALLEYS...

CITY           SKY/WX    TMP DP  RH WIND       PRES   REMARKS
GRAND JUNCTION MOCLDY    65  29  25 CALM      30.07R
MONTROSE       FAIR      63  26  24 NW20G28   30.14R
EAGLE          CLOUDY    55  33  43 VRB3      30.20R
RIFLE          FAIR      62  25  24 SW13      30.14R
DELTA          MOCLDY    65  31  27 NW13G28   30.11R
NUCLA          CLOUDY    63  25  23 NW3       30.15R
$$

COZ017>023-064>068-240600-
...SOUTHWEST COLORADO...

CITY           SKY/WX    TMP DP  RH WIND       PRES   REMARKS
DURANGO        FAIR      44  10  25 NE5       30.13R
CORTEZ         FAIR      49  16  26 E9        30.09S
PAGOSA SPRINGS FAIR      42  13  30 CALM      30.19S
TELLURIDE      MOCLDY    51  17  26 SW3       30.30R
WOLF CREEK PAS FAIR      36  10  35 SW8       30.45F
$$

COZ009-010-012-014-032>034-037-058>063-240600-
...CENTRAL COLORADO...

CITY           SKY/WX    TMP DP  RH WIND       PRES   REMARKS
ASPEN          CLOUDY    52  26  36 N15G23    30.24R
BUENA VISTA    FAIR      49  21  33 W10       30.18S
COPPER MTN     NOT AVBL
BERTHOUD PASS  FAIR      28  19  69 S7        30.39F WCI  21
COTTONWOOD PAS FAIR      50  21  32 W7        30.28F
GUNNISON       MOCLDY    48  27  44 CALM      30.21R
GRANBY         MOCLDY    42  34  73 SE6       30.24F
KREMMLING      MOCLDY    50  37  62 N5        30.22S
LEADVILLE      FAIR      34  22  61 N6        30.28R WCI  29
MONARCH PASS   FAIR      36  19  51 W20       30.48S
SALIDA         FAIR      53  23  31 W9        30.24S
SUNLIGHT       CLOUDY    34  21  60 W16G36    30.36S WCI  23
WILKERSON PASS CLOUDY    36  30  80 E12G18    30.37F
$$

COZ069>075-240600-
...SAN LUIS VALLEY/SANGRE DE CRISTO MOUNTAINS...

CITY           SKY/WX    TMP DP  RH WIND       PRES   REMARKS
ALAMOSA        FAIR      43  17  35 SW5       30.15S
DEL NORTE      FAIR      46  14  27 W7        30.19S
LA VETA PASS   FAIR      45  19  36 S12G24    30.40S
SAGUACHE       NOT AVBL
$$

COZ035-036-038>040-240600-
...NORTHERN COLORADO FRONT RANGE...

CITY           SKY/WX    TMP DP  RH WIND       PRES   REMARKS
DENVER INTL AP CLOUDY    41  35  79 N31G43    30.20R
AURORA         NOT AVBL
FRONT RANGE AP CLOUDY    42  38  86 N29G37    30.22R
ERIE MUNI ARPT MOCLDY    44  36  73 N10       30.30R
BOULDER MUN AP CLOUDY    43  36  75 NE15      30.24R
CENTENNIAL     CLOUDY    41  37  86 NE16G29   30.26R
BROOMFIELD     CLOUDY    43  37  81 N18       30.25R
FORT COLLINS   MOCLDY    41  34  76 N28G35    30.22R
LONGMONT       CLOUDY    45  36  71 NE13G18   30.27R
$$

COZ041-046-047-076>085-087-088-240600-
...PIKES PEAK/PALMER DIVIDE AND SOUTHERN FOOTHILLS...

CITY           SKY/WX    TMP DP  RH WIND       PRES   REMARKS
COLO. SPRINGS  MOCLDY    54  40  59 N12       30.15R
A. F. ACADEMY  LGT RAIN  50  41  71 N23G31    30.19R
SCHRIEVER AFB  NOT AVBL
CHEYENNE MTN   NOT AVBL
ELLICOTT         N/A    N/A N/A N/A E12       30.10S
FALCON         MOCLDY    53  37  55 N17G25    30.20R
FORT CARSON    MOCLDY    51  40  66 NW8       30.10R
LIMON          CLOUDY    51  42  71 NW20G26   30.14R
MONUMENT HILL  CLOUDY    39  37  93 N16G23    30.25R
CANON CITY     FAIR      54  41  62 CALM      30.06S
WALSENBURG     NOT AVBL
TRINIDAD       FAIR      51  31  46 NW3       30.06R
$$

COZ042>045-048>051-090-091-240600-
...NORTHEAST COLORADO...

CITY           SKY/WX    TMP DP  RH WIND       PRES   REMARKS
GREELEY ARPT   LGT RAIN  42  34  73 N25G32    30.22R
AKRON          CLOUDY    46  45  96 N31G38    30.17R
BURLINGTON     FAIR      46  40  79 S8        30.07R
WRAY           LGT RAIN  54  45  71 NW7       30.16R
YUMA           CLOUDY    48  46  93 N14       30.16R
STERLING       NOT AVBL
HOLYOKE        LGT RAIN  46  45  93 NE22G32   30.15F
FORT MORGAN    DRIZZLE   41  32  70 N37G46    30.21R
$$

COZ086-089-092>099-240600-
...SOUTHEAST COLORADO...

CITY           SKY/WX    TMP DP  RH WIND       PRES   REMARKS
PUEBLO         FAIR      57  41  55 NE5       30.02R
LA JUNTA       FAIR      58  42  55 E10       29.99S
LAMAR          FAIR      51  42  71 NE7       30.00S
SPRINGFIELD      N/A     47  41  80 SE7       30.05S
$$




USA.gov is the U.S. government's official web portal to all federal, state and local government web resources and services.